Location: Moscow
(55.7500°N, 37.5830°E)
Time: 07:12:28
(UTC+03:00)

Transit 2A - Pass Details

Date: 30 November 2021
Orbit: 591 x 967 km, 66.7° (Epoch: 17 January)

Event Time Altitude Azimuth Distance (km) Brightness Sun altitude
Exits shadow 04:09:19 31° 20° (NNE) 1,589 7.8 -35.7°
Drops below altitude 10° 04:13:02 10° 44° (NE) 2,704 9.4 -35.2°
Sets 04:15:48 0° 51° (NE) 3,664 10.3 -34.8°
